Imperial, CA

2:33 AM PDT on March 28, 2017 (GMT -0700)
Imperial County

Weather History for KIPL - January, 2014

Change the Weather History Date:

Wednesday, January 1, 2014

  Actual Average Record
Temperature  
Mean Temperature 56 °F -  
Max Temperature 73 °F 67 °F 79 °F (1981)
Min Temperature 39 °F 41 °F 27 °F (2015)
Degree Days  
Heating Degree Days 9    
Growing Degree Days 6 (Base 50)    
Moisture  
Dew Point 22 °F    
Average Humidity 32    
Maximum Humidity 53    
Minimum Humidity 12    
Precipitation  
Precipitation 0.00 in - - ()
Sea Level Pressure  
Sea Level Pressure 30.10 in    
Wind  
Wind Speed 3 mph (WSW)    
Max Wind Speed 7 mph    
Max Gust Speed -    
Visibility 10 miles    
Events      
Averages and records for this station are not official NWS values.
T = Trace of Precipitation, MM = Missing Value Source: NWS Daily Summary

Daily Weather History Graph

Daily Weather History Graph

Search for Another Location

Airport or City:

Trip Planner

Search our weather history database for the weather conditions in past years. The results will help you decide how hot, cold, wet, or windy it might be!

Date:

Astronomy

Jan. 01, 2014 Rise Set
Actual Time 6:44 AM PST 4:47 PM PST
Civil Twilight 6:17 AM PST 5:14 PM PST
Nautical Twilight 5:47 AM PST 5:45 PM PST
Astronomical Twilight 5:16 AM PST 6:15 PM PST
Moon 6:42 AM PST (1/1) 5:32 PM PST (1/1)
Length of Visible Light 10h 56m
Length of Day
10h 02m
New Moon, 0% of the Moon is Illuminated
Jan 1
New Moon
Jan 7
First Quarter
Jan 15
Full
Jan 23
Last Quarter
Jan 30
New

Hourly Weather History & Observations

Time (PST) Temp. Windchill Dew Point Humidity Pressure Visibility Wind Dir Wind Speed Gust Speed Precip Events Conditions
12:53 AM 43.0 °F 40.3 °F 19.9 °F 40% 30.08 in 10.0 mi WSW 4.6 mph - N/A   Clear
1:53 AM 41.0 °F 38.0 °F 19.9 °F 43% 30.09 in 10.0 mi West 4.6 mph - N/A   Clear
2:53 AM 39.9 °F - 19.9 °F 45% 30.10 in 10.0 mi Calm Calm - N/A   Clear
3:53 AM 39.9 °F 37.8 °F 17.1 °F 40% 30.10 in 10.0 mi SW 3.5 mph - N/A   Clear
4:53 AM 39.0 °F 34.8 °F 18.0 °F 43% 30.10 in 10.0 mi West 5.8 mph - N/A   Clear
5:53 AM 42.1 °F 37.7 °F 15.1 °F 34% 30.11 in 10.0 mi West 6.9 mph - N/A   Clear
6:53 AM 39.9 °F - 17.1 °F 40% 30.13 in 10.0 mi Calm Calm - N/A   Clear
7:53 AM 44.1 °F - 17.1 °F 34% 30.15 in 10.0 mi Calm Calm - N/A   Clear
8:53 AM 51.1 °F - 21.9 °F 32% 30.16 in 10.0 mi WSW 3.5 mph - N/A   Clear
9:53 AM 60.1 °F - 21.9 °F 23% 30.17 in 10.0 mi West 4.6 mph - N/A   Clear
10:53 AM 66.0 °F - 18.0 °F 16% 30.16 in 10.0 mi Variable 3.5 mph - N/A   Clear
11:53 AM 69.1 °F - 18.0 °F 14% 30.11 in 10.0 mi West 4.6 mph - N/A   Clear
12:53 PM 72.0 °F - 17.1 °F 12% 30.09 in 10.0 mi Calm Calm - N/A   Clear
1:53 PM 73.9 °F - 19.0 °F 13% 30.07 in 10.0 mi West 5.8 mph - N/A   Clear
2:53 PM 73.9 °F - 19.0 °F 13% 30.06 in 10.0 mi West 4.6 mph - N/A   Clear
3:53 PM 73.0 °F - 18.0 °F 12% 30.06 in 10.0 mi West 5.8 mph - N/A   Clear
4:53 PM 69.1 °F - 19.0 °F 15% 30.06 in 10.0 mi Calm Calm - N/A   Clear
5:53 PM 62.1 °F - 26.1 °F 25% 30.08 in 10.0 mi Calm Calm - N/A   Clear
6:53 PM 59.0 °F - 30.0 °F 33% 30.08 in 10.0 mi East 3.5 mph - N/A   Clear
7:53 PM 51.1 °F - 30.0 °F 44% 30.09 in 10.0 mi West 4.6 mph - N/A   Clear
8:53 PM 48.0 °F - 28.9 °F 48% 30.10 in 10.0 mi WNW 5.8 mph - N/A   Clear
9:53 PM 48.0 °F - 30.0 °F 50% 30.11 in 8.0 mi Calm Calm - N/A   Clear
10:53 PM 46.9 °F - 28.0 °F 48% 30.12 in 10.0 mi West 3.5 mph - N/A   Clear
11:53 PM 44.1 °F 42.5 °F 28.0 °F 53% 30.12 in 9.0 mi SSW 3.5 mph - N/A   Clear